Location: Brno
(49.2000°N, 16.6330°E)
Time: 23:38:14
(UTC+02:00)

Transit 4A - Pass Details

Date: 01 August 2021
Orbit: 870 x 974 km, 66.8° (Epoch: 26 September)

Event Time Altitude Azimuth Distance (km) Brightness Sun altitude
Rises 22:56:46 0° 153° (SSE) 3,487 - -17.7°
Reaches altitude 10° 23:00:50 10° 126° (SE) 2,536 - -18.0°
Maximum altitude 23:03:12 13° 102° (ESE) 2,346 - -18.2°
Exits shadow 23:03:40 13° 97° (E) 2,352 9.7 -18.2°
Drops below altitude 10° 23:05:34 10° 78° (ENE) 2,529 10.0 -18.4°
Sets 23:09:35 0° 51° (NE) 3,467 11.0 -18.7°
